Lid_Strength_Index
2 3 3 3 3 3 3 3 3 3 3 3 3 4 3 3 3 3 3 2 2 2 3 2 2 1 3 6 6 3 -3 -1 2 4 6 9 9 12 13 12 11 13 11 9 9 9 9
2 3 3 3 3 3 3 3 3 3 3 3 3 4 4 4 3 3 3 3 3 3 2 2 1 1 5 10 4 2 5 4 4 6 7 8 9 9 12 12 13 11 10 9 9 9 10
2 3 3 3 3 3 4 4 4 4 4 4 4 4 4 4 3 3 3 3 3 3 2 2 1 2 6 8 3 5 4 5 5 4 7 7 7 8 10 11 10 10 11 10 10 9 9
3 3 3 3 3 4 4 4 4 4 4 4 4 4 4 4 3 3 3 3 3 2 2 1 1 4 9 5 4 5 5 5 4 5 5 5 6 8 10 10 9 11 12 14 11 9 9
2 3 3 3 3 4 4 4 4 4 4 4 4 4 4 4 4 3 3 3 3 2 1 1 4 6 9 2 5 4 5 6 6 5 6 4 7 9 9 12 14 13 15 14 12 10 10
2 3 3 3 3 4 4 4 4 4 4 4 4 4 4 4 4 3 4 3 3 2 2 2 3 8 7 6 5 5 5 5 6 7 7 8 10 11 12 13 17 16 16 14 14 11 10
2 3 3 4 4 4 4 4 4 4 5 5 4 5 4 4 4 4 5 6 7 8 7 8 7 7 5 4 4 5 5 6 7 8 12 10 12 14 12 12 11 12 13 14 12 10 11
2 3 3 4 4 4 4 4 4 4 4 5 5 5 5 4 4 4 6 8 6 6 8 6 6 6 4 4 6 5 5 8 9 12 11 12 14 11 10 10 11 12 14 14 12 9 11
2 3 3 4 4 4 4 5 5 5 5 5 5 5 5 4 5 6 7 6 4 6 9 7 6 6 6 5 6 6 6 8 10 11 12 13 11 9 10 11 11 13 13 13 13 11 10
2 3 3 4 4 4 4 5 5 5 5 5 6 6 5 5 6 7 7 5 5 5 11 9 7 6 6 7 8 5 6 8 10 11 11 12 10 10 11 11 11 14 10 11 11 13 15
3 3 4 4 4 5 5 5 5 5 5 5 6 5 5 5 9 7 5 5 5 4 19 8 7 5 7 8 8 7 6 8 10 10 11 12 11 11 12 11 10 12 10 11 11 13 15
3 3 4 4 4 5 5 5 5 5 6 6 6 6 5 6 7 5 4 6 4 12 18 10 8 8 9 8 8 8 8 7 8 10 10 11 9 9 10 9 9 9 11 12 14 15 18
3 4 4 4 5 5 5 5 5 5 5 6 6 6 6 6 9 6 5 6 13 17 8 10 10 9 10 10 10 9 10 11 12 15 14 12 11 9 8 11 10 11 15 18 19 19 18
3 4 4 5 5 5 6 6 6 6 6 6 6 6 7 5 7 5 6 9 16 12 11 8 9 9 11 9 10 9 11 13 10 12 14 15 15 10 8 10 12 13 14 17 21 20 18
3 5 5 5 6 6 6 6 6 6 7 7 7 10 8 5 5 6 9 15 16 11 8 9 9 11 12 9 11 11 12 12 11 11 14 15 14 9 9 9 10 13 15 13 16 17 19
4 4 5 5 5 5 5 6 6 6 6 7 11 10 8 5 5 7 11 14 12 7 8 8 12 11 14 12 12 12 12 10 10 9 11 12 15 11 9 9 9 11 10 16 17 20 21
4 5 5 5 5 5 5 5 5 5 6 7 11 13 8 6 6 9 14 13 10 7 7 9 11 12 12 12 12 12 12 10 8 9 10 12 13 13 11 12 12 12 14 14 15 16 20
5 5 5 4 4 4 4 4 5 5 5 8 13 13 8 6 10 12 12 10 8 7 7 8 10 11 12 11 12 11 12 10 8 9 12 11 14 16 13 10 9 11 12 13 18 18 16
4 4 4 4 4 4 4 4 5 5 5 9 15 13 6 6 12 12 10 9 8 8 8 9 10 9 9 11 14 11 10 8 8 9 11 11 14 18 16 14 12 13 12 12 13 15 17
4 4 4 4 4 4 4 4 4 5 5 10 13 14 9 9 10 12 12 11 10 7 8 8 9 9 10 11 10 12 11 8 8 8 6 8 14 15 17 15 14 14 12 11 13 19 16
4 4 4 4 4 5 5 4 4 5 5 10 11 12 12 14 12 12 12 11 12 11 8 8 10 10 11 13 12 12 10 10 9 7 8 10 14 13 13 12 12 12 12 12 13 13 16
4 4 4 4 4 5 5 5 5 5 6 11 14 14 13 14 12 12 11 12 12 10 10 11 11 10 11 13 12 13 11 12 12 10 11 10 14 13 14 12 12 14 13 13 12 11 12
4 4 4 5 5 5 5 5 5 5 7 13 12 13 13 14 13 13 12 10 10 9 8 8 10 11 11 10 10 10 9 9 10 11 11 12 13 14 16 13 14 17 14 13 12 11 12
4 5 5 5 5 5 6 6 5 5 7 11 12 13 15 16 12 11 10 9 10 9 10 8 8 9 8 7 8 9 10 10 9 10 9 13 13 14 16 16 21 14 10 10 11 10 10
5 5 5 5 5 6 6 6 6 6 5 10 11 13 15 16 11 12 11 11 10 10 11 9 6 6 5 8 11 13 14 13 12 11 11 10 13 19 20 19 15 12 11 12 13 13 9
5 5 5 6 6 6 6 6 6 6 5 10 11 10 10 14 14 10 12 11 13 13 10 8 7 6 6 9 11 15 17 14 14 12 10 10 10 14 16 19 20 14 9 7 8 16 8
5 5 5 5 5 6 5 6 6 5 4 7 9 9 11 13 11 11 13 13 11 12 13 11 9 9 6 11 14 15 15 11 15 15 14 13 13 15 16 17 15 10 8 7 16 15 9
5 5 5 5 5 5 5 5 4 4 4 5 7 8 8 11 10 9 9 11 11 11 14 11 10 9 10 12 13 13 14 13 14 12 13 14 15 16 15 17 18 8 8 13 10 9 9
5 5 5 5 5 5 5 4 4 3 4 4 7 7 7 9 10 7 8 7 8 8 10 11 10 10 8 11 11 11 13 12 13 16 9 15 12 14 13 14 10 9 9 9 9 10 9